Location: Unspecified
(38.7273°N, 77.0677°W)
Time: 20:54:30
(UTC-04:00)

CAS-4B - Pass Details

Date: 29 September 2021
Orbit: 528 x 541 km, 43.0° (Epoch: 27 October)

Event Time Altitude Azimuth Distance (km) Brightness Sun altitude
Exits shadow 03:51:09 10° 67° (ENE) 1,748 ? -36.6°
Drops below altitude 10° 03:51:09 10° 67° (ENE) 1,752 ? -36.6°
Sets 03:53:29 0° 73° (ENE) 2,659 ? -36.2°
